Petersburg, AK

9:51 PM AKST on February 13, 2016 (GMT -0900)
Johnson Petersburg

Weather History for PAPG - April, 2013

Change the Weather History Date:

Saturday, April 13, 2013

  Actual Average Record
Temperature  
Mean Temperature 38 °F -  
Max Temperature 48 °F 44 °F 57 °F (2003)
Min Temperature 28 °F 31 °F 25 °F (1986)
Degree Days  
Heating Degree Days 27    
Moisture  
Dew Point 28 °F    
Average Humidity 68    
Maximum Humidity 93    
Minimum Humidity 40    
Precipitation  
Precipitation 0.00 in - - ()
Sea Level Pressure  
Sea Level Pressure 29.95 in    
Wind  
Wind Speed 4 mph (SE)    
Max Wind Speed 8 mph    
Max Gust Speed -    
Visibility 10 miles    
Events      
Averages and records for this station are not official NWS values.
T = Trace of Precipitation, MM = Missing Value Source: NWS Daily Summary

Daily Weather History Graph

Daily Weather History Graph

Search for Another Location

Airport or City:

Trip Planner

Search our weather history database for the weather conditions in past years. The results will help you decide how hot, cold, wet, or windy it might be!

Date:

Astronomy

Apr. 13, 2013 Rise Set
Actual Time 5:48 AM AKDT 7:57 PM AKDT
Civil Twilight 5:07 AM AKDT 8:38 PM AKDT
Nautical Twilight 4:15 AM AKDT 9:31 PM AKDT
Astronomical Twilight 3:12 AM AKDT 10:35 PM AKDT
Moon 7:11 AM AKDT (4/13) No Moon Set
Length of Visible Light 15h 31m
Length of Day
14h 09m
Waxing Crescent, 11% of the Moon is Illuminated
Apr 13
Waxing Crescent
Apr 18
First Quarter
Apr 25
Full
May 2
Last Quarter
May 9
New

Hourly Weather History & Observations

Time (AKDT) Temp. Windchill Dew Point Humidity Pressure Visibility Wind Dir Wind Speed Gust Speed Precip Events Conditions
12:16 AM 35.6 °F 31.7 °F 26.6 °F 70% 29.76 in 10.0 mi WSW 4.6 mph - N/A   Clear
12:36 AM 35.6 °F 31.7 °F 28.4 °F 75% 29.78 in 10.0 mi SW 4.6 mph - N/A   Clear
12:56 AM 33.8 °F 28.6 °F 26.6 °F 75% 29.78 in 10.0 mi WSW 5.8 mph - N/A   Clear
1:16 AM 33.8 °F 29.6 °F 28.4 °F 81% 29.79 in 10.0 mi SW 4.6 mph - N/A   Clear
1:36 AM 30.2 °F 25.4 °F 26.6 °F 86% 29.80 in 10.0 mi SW 4.6 mph - N/A   Clear
1:56 AM 33.8 °F 30.8 °F 26.6 °F 75% 29.80 in 10.0 mi SW 3.5 mph - N/A   Clear
2:16 AM 30.2 °F 26.7 °F 26.6 °F 86% 29.81 in 10.0 mi SW 3.5 mph - N/A   Clear
2:36 AM 32.0 °F 27.5 °F 26.6 °F 80% 29.82 in 10.0 mi SW 4.6 mph - N/A   Clear
2:56 AM 30.2 °F 25.4 °F 26.6 °F 86% 29.82 in 10.0 mi South 4.6 mph - N/A   Clear
3:16 AM 30.2 °F 26.7 °F 26.6 °F 86% 29.83 in 10.0 mi West 3.5 mph - N/A   Clear
3:36 AM 32.0 °F 25.6 °F 26.6 °F 80% 29.84 in 10.0 mi WSW 6.9 mph - N/A   Clear
3:56 AM 33.8 °F 29.6 °F 26.6 °F 75% 29.85 in 10.0 mi SW 4.6 mph - N/A   Clear
4:16 AM 30.2 °F 25.4 °F 24.8 °F 80% 29.85 in 10.0 mi West 4.6 mph - N/A   Clear
4:36 AM 32.0 °F 27.5 °F 26.6 °F 80% 29.86 in 10.0 mi SW 4.6 mph - N/A   Clear
4:56 AM 33.8 °F - 26.6 °F 75% 29.87 in 10.0 mi Calm Calm - N/A   Clear
5:16 AM 30.2 °F - 26.6 °F 86% 29.87 in 10.0 mi Calm Calm - N/A   Clear
5:36 AM 32.0 °F 28.7 °F 26.6 °F 80% 29.88 in 10.0 mi WSW 3.5 mph - N/A   Clear
5:56 AM 32.0 °F 28.7 °F 26.6 °F 80% 29.89 in 10.0 mi SSW 3.5 mph - N/A   Clear
6:16 AM 28.4 °F - 24.8 °F 86% 29.89 in 10.0 mi Calm Calm - N/A   Clear
6:36 AM 28.4 °F 24.6 °F 26.6 °F 93% 29.90 in 10.0 mi WSW 3.5 mph - N/A   Clear
6:56 AM 30.2 °F 26.7 °F 26.6 °F 86% 29.90 in 10.0 mi SW 3.5 mph - N/A   Clear
7:16 AM 32.0 °F - 28.4 °F 87% 29.91 in 10.0 mi Calm Calm - N/A   Clear
7:36 AM 33.8 °F - 30.2 °F 87% 29.91 in 10.0 mi Calm Calm - N/A   Clear
7:56 AM 37.4 °F 33.8 °F 30.2 °F 75% 29.91 in 10.0 mi West 4.6 mph - N/A   Clear
8:16 AM 37.4 °F 34.9 °F 28.4 °F 70% 29.92 in 10.0 mi West 3.5 mph - N/A   Clear
8:36 AM 39.2 °F - 30.2 °F 70% 29.92 in 10.0 mi Calm Calm - N/A   Clear
8:56 AM 39.2 °F - 30.2 °F 70% 29.92 in 10.0 mi Calm Calm - N/A   Clear
9:16 AM 41.0 °F 38.0 °F 30.2 °F 65% 29.93 in 10.0 mi ENE 4.6 mph - N/A   Clear
9:36 AM 41.0 °F 39.0 °F 28.4 °F 61% 29.94 in 10.0 mi East 3.5 mph - N/A   Clear
9:56 AM 42.8 °F 40.1 °F 30.2 °F 61% 29.94 in 10.0 mi ENE 4.6 mph - N/A   Clear
10:16 AM 42.8 °F 40.1 °F 30.2 °F 61% 29.94 in 10.0 mi East 4.6 mph - N/A   Clear
10:36 AM 42.8 °F 40.1 °F 30.2 °F 61% 29.95 in 10.0 mi ENE 4.6 mph - N/A   Clear
10:56 AM 42.8 °F 40.1 °F 30.2 °F 61% 29.96 in 10.0 mi NE 4.6 mph - N/A   Clear
11:16 AM 44.6 °F 41.4 °F 30.2 °F 57% 29.96 in 10.0 mi NE 5.8 mph - N/A   Partly Cloudy
11:36 AM - - - N/A% - - North - - N/A   Unknown
11:56 AM 44.6 °F 41.4 °F 28.4 °F 53% 29.97 in 10.0 mi NE 5.8 mph - N/A   Partly Cloudy
12:16 PM 42.8 °F 38.6 °F 33.8 °F 70% 29.98 in 10.0 mi NE 6.9 mph - N/A   Partly Cloudy
12:36 PM 44.6 °F 40.7 °F 33.8 °F 66% 29.98 in 10.0 mi NE 6.9 mph - N/A   Partly Cloudy
12:56 PM 44.6 °F 40.7 °F 32.0 °F 61% 29.99 in 10.0 mi ENE 6.9 mph - N/A   Partly Cloudy
1:16 PM 44.6 °F 40.7 °F 30.2 °F 57% 29.99 in 10.0 mi ENE 6.9 mph - N/A   Partly Cloudy
1:36 PM 44.6 °F 41.4 °F 30.2 °F 57% 29.99 in 10.0 mi NE 5.8 mph - N/A   Partly Cloudy
1:56 PM 46.4 °F 42.9 °F 30.2 °F 53% 29.99 in 10.0 mi NE 6.9 mph - N/A   Partly Cloudy
2:16 PM 46.4 °F 43.5 °F 28.4 °F 50% 29.99 in 10.0 mi NE 5.8 mph - N/A   Partly Cloudy
2:36 PM 46.4 °F 42.9 °F 28.4 °F 50% 29.99 in 10.0 mi NE 6.9 mph - N/A   Partly Cloudy
2:56 PM 46.4 °F 42.4 °F 26.6 °F 46% 29.99 in 10.0 mi NE 8.1 mph - N/A   Scattered Clouds
3:16 PM 48.2 °F - 28.4 °F 46% 29.99 in 10.0 mi ENE 6.9 mph - N/A   Scattered Clouds
3:36 PM 46.4 °F 43.5 °F 28.4 °F 50% 29.99 in 10.0 mi NE 5.8 mph - N/A   Scattered Clouds
3:56 PM 48.2 °F - 24.8 °F 40% 29.99 in 10.0 mi NE 6.9 mph - N/A   Scattered Clouds
4:16 PM 46.4 °F 43.5 °F 30.2 °F 53% 29.99 in 10.0 mi ENE 5.8 mph - N/A   Scattered Clouds
4:36 PM 46.4 °F 42.9 °F 28.4 °F 50% 29.99 in 10.0 mi NE 6.9 mph - N/A   Scattered Clouds
4:56 PM 46.4 °F 43.5 °F 28.4 °F 50% 30.00 in 10.0 mi ENE 5.8 mph - N/A   Scattered Clouds
5:16 PM 46.4 °F 44.3 °F 26.6 °F 46% 30.00 in 10.0 mi ENE 4.6 mph - N/A   Scattered Clouds
5:36 PM 48.2 °F - 26.6 °F 43% 30.00 in 10.0 mi ENE 4.6 mph - N/A   Scattered Clouds
5:56 PM 46.4 °F 43.5 °F 26.6 °F 46% 30.00 in 10.0 mi ENE 5.8 mph - N/A   Scattered Clouds
6:16 PM 44.6 °F 41.4 °F 28.4 °F 53% 30.00 in 10.0 mi East 5.8 mph - N/A   Scattered Clouds
6:36 PM 44.6 °F 42.2 °F 26.6 °F 49% 30.01 in 10.0 mi East 4.6 mph - N/A   Scattered Clouds
6:56 PM 44.6 °F 43.1 °F 28.4 °F 53% 30.01 in 10.0 mi ESE 3.5 mph - N/A   Scattered Clouds
7:16 PM 42.8 °F 40.1 °F 28.4 °F 57% 30.01 in 10.0 mi SE 4.6 mph - N/A   Scattered Clouds
7:36 PM 41.0 °F 39.0 °F 26.6 °F 57% 30.01 in 10.0 mi South 3.5 mph - N/A   Scattered Clouds
7:56 PM 39.2 °F 35.9 °F 28.4 °F 65% 30.02 in 10.0 mi SSE 4.6 mph - N/A   Partly Cloudy
8:16 PM 37.4 °F - 28.4 °F 70% 30.03 in 10.0 mi Calm Calm - N/A   Partly Cloudy
8:36 PM 35.6 °F - 26.6 °F 70% 30.03 in 10.0 mi Calm Calm - N/A   Partly Cloudy
8:56 PM 37.4 °F 34.9 °F 26.6 °F 65% 30.04 in 10.0 mi South 3.5 mph - N/A   Partly Cloudy
9:16 PM 37.4 °F 34.9 °F 28.4 °F 70% 30.04 in 10.0 mi South 3.5 mph - N/A   Partly Cloudy
9:36 PM 35.6 °F 31.7 °F 26.6 °F 70% 30.05 in 10.0 mi South 4.6 mph - N/A   Partly Cloudy
9:56 PM 35.6 °F 32.8 °F 28.4 °F 75% 30.05 in 10.0 mi SW 3.5 mph - N/A   Partly Cloudy
10:16 PM 35.6 °F 32.8 °F 28.4 °F 75% 30.05 in 10.0 mi SSW 3.5 mph - N/A   Clear
10:36 PM 33.8 °F - 28.4 °F 81% 30.06 in 10.0 mi Calm Calm - N/A   Clear
10:56 PM 35.6 °F 32.8 °F 28.4 °F 75% 30.06 in 10.0 mi SW 3.5 mph - N/A   Clear
11:16 PM 33.8 °F - 28.4 °F 81% 30.06 in 10.0 mi Calm Calm - N/A   Clear
11:36 PM 33.8 °F 29.6 °F 28.4 °F 81% 30.06 in 10.0 mi SW 4.6 mph - N/A   Scattered Clouds
11:56 PM 33.8 °F 30.8 °F 26.6 °F 75% 30.07 in 10.0 mi SSW 3.5 mph - N/A   Partly Cloudy